Total_Precipitation_Accumulation
0.06 0.23 0.55 0.86 1.42 1.70 1.34 0.80 0.52 0.31 0.36 0.44 0.55 0.65 0.67 0.78 1.09 1.75 1.50 1.06 0.97 1.17 1.20 1.29 1.45 1.38 1.57 1.77 1.84 1.96 2.17 2.25 2.19 1.93 1.97 2.21 2.47 2.66 2.75 2.73 2.77 2.93 3.28 3.47 3.33 3.07 2.95 2.79 2.68
0.15 0.48 0.78 1.15 1.62 1.37 1.08 0.65 0.37 0.27 0.30 0.41 0.47 0.45 0.46 0.46 0.49 0.75 1.09 0.93 0.83 0.89 0.91 1.09 1.32 1.35 1.38 1.54 1.64 1.75 1.91 2.05 2.03 1.85 1.82 2.06 2.36 2.57 2.74 2.81 2.77 2.90 3.17 3.48 3.36 3.13 2.98 2.77 2.54
0.32 0.55 0.90 1.26 1.21 0.84 0.68 0.42 0.31 0.31 0.37 0.46 0.45 0.40 0.44 0.61 0.51 0.63 0.82 0.76 0.73 0.77 0.85 1.17 1.29 1.27 1.28 1.35 1.48 1.62 1.70 1.74 1.81 1.77 1.84 2.07 2.34 2.58 2.69 2.65 2.66 2.75 2.97 3.20 3.28 2.96 2.61 2.44 2.35
0.40 0.66 0.87 0.94 0.70 0.48 0.40 0.32 0.27 0.27 0.40 0.56 0.61 0.48 0.43 0.50 0.49 0.55 0.61 0.63 0.71 0.85 0.92 1.15 1.30 1.20 1.22 1.29 1.34 1.48 1.56 1.65 1.78 1.82 1.89 2.21 2.41 2.52 2.53 2.32 2.30 2.48 2.62 2.82 2.88 2.60 2.26 2.22 2.33
0.48 0.78 0.95 0.67 0.44 0.36 0.32 0.27 0.24 0.26 0.35 0.58 0.68 0.68 0.69 0.68 0.51 0.49 0.59 0.61 0.63 0.77 0.95 1.13 1.20 1.07 1.05 1.07 1.20 1.43 1.55 1.67 1.83 1.89 2.04 2.30 2.50 2.55 2.50 2.31 2.42 2.43 2.55 2.72 2.58 2.40 2.32 2.48 2.54
0.63 0.80 0.68 0.50 0.32 0.25 0.25 0.25 0.29 0.31 0.46 0.57 0.60 0.70 0.90 0.85 0.65 0.53 0.61 0.65 0.68 0.75 0.91 1.11 1.14 1.03 1.02 1.11 1.26 1.41 1.53 1.64 1.83 1.89 2.02 2.29 2.52 2.48 2.29 2.27 2.40 2.31 2.49 2.58 2.41 2.23 2.20 2.38 2.55
0.50 0.54 0.43 0.41 0.34 0.27 0.21 0.22 0.34 0.38 0.63 0.77 0.81 0.79 1.02 1.07 0.77 0.66 0.74 0.75 0.81 0.79 0.91 1.03 1.09 1.05 1.06 1.18 1.40 1.54 1.60 1.73 1.85 1.83 1.94 2.24 2.41 2.40 2.29 2.26 2.33 2.35 2.45 2.30 2.15 2.16 2.09 2.16 2.43
0.27 0.32 0.29 0.29 0.29 0.23 0.19 0.20 0.30 0.37 0.55 0.62 0.76 0.91 1.18 1.06 0.79 0.80 0.84 0.90 0.96 0.98 1.04 1.04 1.10 1.03 1.00 1.14 1.54 1.78 1.82 1.90 1.96 1.97 2.09 2.38 2.52 2.50 2.36 2.17 2.25 2.30 2.28 2.19 2.16 2.13 2.12 2.20 2.46
0.22 0.24 0.23 0.20 0.18 0.19 0.15 0.19 0.24 0.39 0.47 0.50 0.63 0.80 1.03 0.83 0.79 0.95 1.14 1.24 1.25 1.24 1.31 1.22 1.26 1.11 1.15 1.22 1.52 1.85 1.94 2.07 2.24 2.30 2.43 2.79 2.95 2.73 2.71 2.35 2.48 2.46 2.40 2.43 2.47 2.42 2.42 2.39 2.61
0.19 0.17 0.13 0.10 0.09 0.12 0.13 0.18 0.25 0.38 0.76 0.95 1.08 1.00 0.87 0.88 0.94 1.07 1.26 1.42 1.46 1.48 1.32 1.31 1.39 1.31 1.43 1.43 1.68 2.20 2.23 2.40 2.66 2.74 2.66 2.95 3.06 3.11 2.71 2.83 3.12 3.13 3.08 3.07 3.17 3.21 3.04 2.61 2.49
0.15 0.10 0.07 0.06 0.05 0.07 0.11 0.17 0.18 0.33 0.89 1.42 1.54 1.20 0.88 1.01 1.19 1.40 1.48 1.55 1.47 1.53 1.38 1.49 1.60 1.74 1.81 2.08 1.88 2.04 2.43 2.71 2.86 3.01 3.11 3.20 2.91 2.83 2.77 3.06 3.46 3.50 3.42 3.33 3.42 3.56 3.14 2.93 2.97
0.08 0.06 0.06 0.05 0.05 0.06 0.09 0.17 0.21 0.36 0.83 1.24 1.24 1.00 0.85 1.08 1.28 1.59 1.76 1.93 2.01 2.02 2.00 1.97 2.15 2.38 2.40 2.19 2.15 2.03 2.13 2.36 2.75 3.06 2.98 3.09 3.28 3.25 3.04 3.13 3.20 3.26 3.36 3.61 3.42 3.47 3.47 3.40 3.16
0.06 0.05 0.06 0.05 0.06 0.07 0.13 0.16 0.26 0.47 0.58 0.64 0.75 0.78 0.88 1.19 1.52 1.90 2.13 2.36 2.49 2.78 2.94 2.90 2.89 2.84 2.89 2.89 2.75 2.32 2.46 2.41 2.52 2.97 3.04 3.02 3.31 3.43 3.32 3.24 3.35 3.00 3.03 3.40 3.65 3.43 3.51 3.61 3.42
0.06 0.06 0.05 0.06 0.07 0.08 0.12 0.18 0.30 0.56 0.59 0.63 0.69 0.73 0.87 1.30 1.85 2.34 2.43 2.57 2.86 3.53 4.03 3.83 3.66 3.43 3.32 3.36 3.32 3.25 2.92 2.80 2.63 2.92 3.06 3.16 3.43 3.57 3.51 3.36 3.31 2.94 2.83 3.10 3.37 3.35 3.56 3.55 3.47
0.09 0.09 0.11 0.10 0.10 0.16 0.19 0.35 0.50 0.68 0.67 0.66 0.76 0.81 0.89 1.27 1.75 2.47 2.84 3.09 3.40 4.16 4.77 4.57 4.44 4.42 4.20 4.10 3.77 3.39 3.14 2.95 3.13 3.32 3.45 3.48 3.52 3.73 3.71 3.53 3.26 3.09 3.12 3.23 3.25 3.33 3.68 3.47 3.33
0.13 0.15 0.27 0.22 0.16 0.19 0.28 0.70 0.77 0.78 0.70 0.75 0.96 0.88 0.89 1.22 1.74 2.44 3.06 3.56 3.92 4.33 4.80 5.19 4.85 5.24 5.17 4.93 4.50 4.03 3.77 3.74 3.67 3.60 3.75 3.52 3.44 3.54 3.77 3.40 3.09 3.21 3.34 3.47 3.47 3.47 3.66 3.71 3.78
0.19 0.24 0.37 0.34 0.23 0.21 0.31 0.83 0.89 0.67 0.68 0.83 0.99 1.00 1.05 1.31 1.69 2.19 2.84 3.41 3.98 4.60 5.16 5.67 5.88 5.97 5.57 5.22 4.87 4.66 4.40 4.13 3.71 3.32 3.25 3.12 2.88 2.84 3.01 2.84 2.78 2.82 2.99 2.95 2.75 3.15 3.39 3.59 3.78
0.18 0.22 0.28 0.43 0.34 0.25 0.34 0.66 0.79 0.71 0.68 0.86 1.08 1.06 1.12 1.34 1.73 2.15 2.71 3.19 3.85 4.72 5.57 6.05 6.23 5.84 5.43 5.07 4.64 4.54 4.21 3.88 3.52 3.12 2.85 2.65 2.58 2.43 2.60 2.41 2.36 2.52 2.77 2.83 2.90 3.14 3.07 2.98 3.13
0.14 0.20 0.25 0.35 0.29 0.27 0.41 0.66 0.78 0.80 0.83 0.97 1.14 1.15 1.19 1.31 1.70 2.18 2.71 3.20 3.87 4.79 5.75 6.19 6.05 5.46 4.97 4.52 4.08 3.80 3.51 3.28 3.16 2.85 2.49 2.41 2.40 2.44 2.69 2.42 2.62 2.57 2.64 2.67 2.61 2.73 2.69 2.42 2.55
0.14 0.22 0.26 0.32 0.27 0.31 0.45 0.69 0.90 1.00 1.06 1.00 1.04 1.17 1.13 1.30 1.76 2.28 2.88 3.26 3.60 4.14 4.91 5.29 5.02 4.39 3.75 3.48 3.39 3.30 3.25 2.91 2.69 2.61 2.54 2.24 2.26 2.34 2.40 2.51 2.31 2.31 2.44 2.37 2.36 2.65 2.60 2.30 2.39
0.15 0.20 0.26 0.31 0.27 0.37 0.51 0.94 1.23 1.25 1.02 0.81 0.73 0.88 0.91 1.03 1.55 2.29 2.83 3.13 3.39 3.60 3.59 3.75 3.70 3.26 2.92 2.80 2.80 2.82 2.97 2.77 2.49 2.40 2.33 2.09 2.01 1.97 2.12 2.18 2.24 2.33 2.22 2.29 2.33 2.37 2.47 2.42 2.26
0.15 0.12 0.14 0.21 0.31 0.52 0.59 1.35 1.60 1.36 1.13 0.89 0.72 0.73 0.78 0.94 1.40 2.15 2.44 2.56 2.62 2.70 2.50 2.51 2.65 2.56 2.53 2.42 2.43 2.34 2.21 2.21 2.12 2.10 2.06 2.01 1.89 1.80 1.72 1.83 1.99 2.18 2.14 2.36 2.10 2.13 2.35 2.43 2.20
0.14 0.11 0.12 0.19 0.34 0.52 0.73 1.22 1.63 1.46 1.28 0.96 0.71 0.67 0.75 0.84 1.10 1.44 1.51 1.66 1.75 1.80 1.83 2.02 2.33 2.43 2.35 2.28 2.39 2.39 2.10 1.97 1.90 1.94 2.05 1.99 1.88 1.73 1.58 1.66 1.86 2.03 2.09 2.18 2.17 2.39 2.32 2.22 2.17
0.10 0.13 0.19 0.35 0.53 0.93 0.94 1.12 1.56 1.39 1.12 0.77 0.64 0.64 0.58 0.61 0.80 0.99 1.04 1.13 1.20 1.24 1.36 1.60 2.06 2.28 2.16 2.11 2.14 2.11 2.05 2.02 1.93 1.88 1.91 1.88 1.81 1.81 1.78 1.73 1.84 1.88 1.92 1.98 2.07 2.26 2.24 2.19 2.21
0.10 0.15 0.42 0.84 1.29 1.40 0.90 1.05 1.39 1.04 0.76 0.57 0.47 0.50 0.52 0.65 0.72 0.83 0.99 1.05 0.98 0.94 1.07 1.30 1.63 1.78 1.75 1.81 1.92 1.99 2.06 2.03 1.88 1.82 1.76 1.73 1.60 1.67 1.84 1.84 1.86 1.91 1.96 1.92 2.03 2.09 2.07 2.09 2.19
0.13 0.15 0.31 0.59 0.74 0.87 0.88 1.32 1.44 0.85 0.59 0.47 0.43 0.44 0.55 0.63 0.61 0.64 0.74 0.74 0.73 0.80 0.89 1.07 1.24 1.33 1.43 1.54 1.72 1.87 1.89 1.87 1.82 1.94 1.81 1.67 1.50 1.46 1.64 1.80 1.82 1.79 1.75 1.78 2.18 1.99 1.93 2.07 2.14
0.11 0.12 0.14 0.20 0.30 0.63 1.02 1.28 1.18 0.79 0.52 0.41 0.40 0.39 0.49 0.51 0.45 0.46 0.52 0.56 0.61 0.78 0.90 0.96 1.06 1.17 1.28 1.38 1.62 1.77 1.77 1.71 1.74 1.83 1.75 1.59 1.59 1.51 1.58 1.58 1.76 1.83 1.75 1.79 2.02 2.01 1.96 2.07 2.05
0.10 0.10 0.11 0.15 0.33 0.62 0.99 1.38 1.33 0.99 0.70 0.59 0.45 0.38 0.44 0.45 0.41 0.44 0.49 0.56 0.57 0.62 0.80 0.90 0.97 1.11 1.27 1.35 1.40 1.44 1.57 1.54 1.53 1.48 1.47 1.55 1.58 1.56 1.63 1.66 1.63 1.68 1.78 1.88 2.01 1.91 1.86 1.98 2.09
0.09 0.09 0.10 0.12 0.19 0.42 0.81 1.10 0.87 0.73 0.58 0.59 0.54 0.49 0.49 0.51 0.49 0.47 0.55 0.57 0.57 0.58 0.73 0.85 0.91 1.00 1.10 1.12 1.15 1.26 1.34 1.33 1.31 1.31 1.28 1.39 1.45 1.50 1.52 1.55 1.60 1.59 1.68 1.92 2.21 2.11 2.06 2.08 2.14
0.09 0.08 0.09 0.13 0.15 0.23 0.49 0.69 0.51 0.53 0.48 0.54 0.58 0.61 0.63 0.64 0.62 0.60 0.65 0.61 0.65 0.67 0.71 0.81 0.79 0.81 0.88 0.96 1.01 1.07 1.19 1.20 1.19 1.22 1.37 1.45 1.44 1.39 1.30 1.37 1.42 1.38 1.49 1.76 2.07 2.22 2.29 2.36 2.33